Wind_Speed
27 26 26 27 26 22 21 25 23 25 21 21 25 24 27 32 39 36 44 37 34 39 39 39 37 32 30 29 29 28 25 28 28 27 23 20 16 20 21 21 18 21 15 17 19 12 14 19 18 17 18 17 17 18
26 26 24 24 27 26 23 21 21 25 26 19 19 12 15 25 33 38 37 38 34 30 28 28 37 40 40 37 34 32 30 23 26 22 28 22 19 21 26 16 23 17 21 13 12 10 17 20 18 17 15 18 21 26
25 25 25 23 24 25 23 22 19 23 25 20 15 8 5 9 13 15 23 21 22 24 25 28 30 28 31 37 39 39 38 39 36 40 33 25 12 16 17 21 14 19 16 20 20 23 23 21 22 23 23 24 26 31
25 24 24 23 22 23 23 21 21 23 24 20 19 17 9 13 17 16 18 18 11 17 16 18 21 30 28 32 33 34 35 35 34 28 28 17 15 11 16 17 16 19 17 20 22 21 20 21 23 26 26 26 28 29
25 24 24 22 22 21 22 22 20 19 21 22 11 18 11 15 12 11 10 14 15 14 9 17 17 18 22 25 23 25 24 24 25 26 24 20 18 13 15 18 20 18 21 22 23 21 23 25 24 21 25 28 28 32
24 23 23 22 21 20 21 21 20 19 18 28 10 5 11 14 13 13 11 12 13 13 14 8 6 4 7 7 10 14 16 19 20 16 15 16 18 16 11 19 16 13 18 21 23 20 16 16 21 24 25 26 28 31
22 22 22 20 19 19 19 19 18 19 18 22 18 13 11 14 16 13 14 11 14 4 12 8 5 3 6 8 8 7 5 4 7 10 10 12 13 15 20 21 17 15 14 14 14 15 16 16 17 18 21 26 29 33
21 20 19 19 18 18 17 17 16 17 15 14 22 8 16 17 16 15 15 12 13 11 7 5 4 5 4 4 1 2 2 2 4 7 9 12 14 17 16 15 14 14 11 11 12 13 11 12 16 20 26 30 34 34
18 17 17 17 16 16 15 15 14 14 13 8 8 9 9 17 14 10 14 17 14 10 7 7 8 8 11 9 8 7 5 8 7 12 14 10 14 7 5 7 5 6 8 10 9 8 12 16 20 26 31 34 35 33
16 16 16 15 15 14 13 14 12 10 9 5 1 6 16 15 12 13 14 12 15 16 13 10 11 8 8 8 7 6 5 8 4 6 6 10 14 5 14 14 13 12 13 11 11 12 17 21 25 29 34 35 32 31
13 14 14 13 12 12 13 12 10 8 5 5 1 5 5 9 13 15 10 10 9 7 10 13 12 10 8 6 7 6 5 4 3 3 4 2 3 3 7 8 8 8 10 10 12 18 22 26 30 33 35 31 30 33
12 13 12 11 10 10 10 9 7 5 4 5 6 4 13 13 5 5 10 10 8 6 10 10 9 10 8 9 6 7 5 5 2 4 3 1 0 1 2 2 4 3 4 10 16 21 26 30 31 34 33 32 33 38
13 11 10 8 8 8 8 6 3 3 2 2 5 3 2 4 3 4 6 6 7 10 10 11 10 8 10 6 6 5 5 4 3 3 3 2 1 2 4 3 1 6 12 16 22 27 29 31 33 31 32 32 38 42
8 7 7 7 6 6 6 6 3 1 1 6 4 3 4 3 3 5 7 10 11 9 13 11 9 8 10 9 6 5 6 6 4 3 1 2 2 4 1 5 11 14 18 24 28 30 33 35 34 32 33 38 41 41
7 7 6 4 4 4 1 2 4 4 4 5 5 4 4 4 2 5 7 10 11 15 13 13 10 7 11 6 6 5 7 5 4 4 4 4 3 2 9 14 19 23 28 30 31 33 35 34 35 38 38 39 40 40
6 4 3 2 3 2 1 3 7 5 6 3 4 4 7 4 1 1 10 9 15 14 15 13 9 7 5 6 6 6 6 5 6 3 2 3 5 9 14 20 25 29 29 30 32 34 35 36 38 39 39 38 37 35
3 5 4 4 3 2 0 5 2 5 4 1 0 2 5 4 8 5 12 14 15 14 18 6 5 5 8 5 7 6 4 3 3 2 4 8 13 16 21 24 26 27 28 32 35 36 37 38 39 39 37 34 32 32
7 6 4 4 3 3 2 3 3 4 6 5 3 3 6 7 4 7 10 10 13 15 13 6 5 7 4 6 7 9 4 2 2 4 8 14 18 22 23 27 30 31 34 36 37 37 38 38 36 35 34 32 29 29
4 5 5 5 5 5 3 4 6 4 6 6 3 2 1 6 6 5 5 4 10 15 13 8 3 6 6 5 5 2 3 3 7 11 15 20 23 27 30 31 32 34 37 37 37 38 35 35 35 33 30 29 28 24
4 4 4 4 4 3 3 3 2 1 1 0 1 3 5 5 4 1 1 4 4 8 16 12 9 5 5 4 4 3 8 13 15 19 21 23 29 30 28 30 34 36 37 36 36 33 34 34 30 29 27 24 20 16
4 6 5 4 2 1 2 3 3 1 1 1 1 2 6 7 7 7 4 4 7 12 11 9 8 8 8 9 10 12 15 19 21 24 28 30 32 32 32 34 34 36 36 36 32 33 34 32 28 23 18 16 15 15
3 4 5 4 3 1 2 3 6 7 6 6 6 5 4 3 7 9 9 13 11 11 12 12 10 8 8 10 12 15 18 21 24 28 30 30 30 32 32 33 35 34 34 31 33 33 30 25 20 16 14 14 14 14
3 4 5 3 2 2 2 3 4 4 3 4 3 5 6 6 5 5 6 8 8 7 6 4 5 6 11 15 16 17 20 23 23 22 23 26 29 32 33 33 34 33 30 31 31 29 23 17 15 15 13 12 10 8
2 1 3 2 1 1 4 4 2 1 2 4 5 2 3 4 4 2 4 3 4 4 5 7 8 10 10 12 10 12 14 16 19 21 24 26 28 29 31 29 29 29 32 30 26 19 15 16 15 12 7 6 6 4
2 1 1 2 2 3 3 4 3 1 2 1 2 3 4 5 6 6 5 3 6 8 10 10 7 3 2 5 6 10 13 16 18 21 23 26 28 27 25 26 26 28 28 24 16 14 15 14 11 8 6 5 4 2
1 1 1 2 3 3 4 4 3 2 3 3 2 3 6 7 5 3 7 11 13 13 10 7 5 5 5 7 9 12 14 17 19 22 24 27 25 24 25 23 23 24 21 14 13 13 12 9 7 6 5 4 4 4
1 0 1 2 5 7 4 3 1 2 3 2 1 3 3 3 4 13 17 14 10 9 9 9 11 8 9 10 13 15 17 18 19 22 24 25 26 26 26 25 25 22 13 10 12 10 9 10 9 8 7 7 7 7
2 2 2 3 5 5 2 3 4 3 4 4 4 3 2 2 9 14 10 5 4 10 12 13 13 7 10 13 14 17 19 19 20 22 23 24 24 24 22 24 24 17 10 7 9 10 11 11 11 10 9 7 6 6
4 3 2 1 2 2 1 3 3 5 4 6 7 9 7 6 7 12 9 5 7 11 12 12 9 6 9 13 17 20 20 19 17 15 15 15 16 18 19 21 20 13 6 5 6 6 7 8 9 9 8 6 5 5
10 6 1 2 2 1 3 5 5 5 5 4 3 3 3 4 5 4 4 6 11 13 11 10 5 7 11 15 18 20 21 22 21 21 18 17 18 19 21 19 14 8 5 4 4 4 4 5 6 6 4 4 4 5
8 9 7 4 1 3 4 4 5 5 5 4 4 4 3 3 5 7 10 13 13 9 5 2 5 8 12 14 15 16 17 19 20 22 21 21 21 20 21 19 15 9 6 4 4 4 2 3 6 6 3 2 2 3
3 6 7 7 6 4 2 6 9 8 8 8 9 9 9 10 11 12 11 7 3 1 1 5 8 10 11 12 14 16 18 20 20 21 21 21 21 20 20 19 16 11 7 4 3 4 4 4 6 7 5 4 5 5
6 3 3 6 9 8 3 2 3 2 3 4 4 5 5 4 4 3 6 4 1 3 6 9 9 8 10 12 14 17 20 21 22 23 24 23 22 21 19 17 15 11 8 4 2 3 3 3 4 5 5 5 5 5
Wind_Direction
312 312 309 308 315 294 285 265 266 274 298 257 254 245 240 243 236 237 233 229 231 236 241 241 237 232 235 239 241 243 237 231 230 224 222 225 223 222 230 233 234 223 215 220 225 232 259 251 253 248 266 268 267 269
310 309 311 308 308 313 297 286 252 274 284 272 243 253 250 240 238 235 233 234 235 235 239 241 240 235 230 231 232 229 228 228 222 219 226 225 211 210 222 222 227 226 224 231 219 240 254 269 261 267 270 273 277 286
306 305 306 306 308 306 310 296 275 251 277 281 234 277 241 260 261 252 243 229 231 232 240 242 235 239 244 243 240 233 230 230 220 228 224 222 212 215 209 219 223 224 232 230 239 238 245 256 266 273 282 289 293 296
310 302 300 302 302 307 307 302 285 260 261 273 273 267 245 255 240 242 250 250 235 234 234 237 236 236 238 240 239 240 238 237 238 241 217 203 204 218 222 237 239 238 245 248 242 249 251 260 270 282 287 289 294 293
301 305 300 297 299 300 307 306 296 285 250 260 236 255 241 261 233 265 231 237 236 233 236 229 233 233 236 236 236 238 236 230 231 222 215 216 219 230 243 251 246 256 264 262 256 255 257 267 278 283 285 287 288 296
297 298 302 296 296 296 300 305 304 290 267 235 250 250 241 233 249 251 262 246 231 257 219 203 171 146 182 202 235 240 229 216 200 200 214 230 237 236 249 249 263 252 251 252 257 260 263 265 270 275 282 290 295 299
293 294 298 296 292 292 295 304 303 300 290 255 246 203 236 255 271 263 237 238 213 231 210 162 165 184 212 207 191 191 196 196 210 214 224 247 252 239 246 254 274 266 252 250 252 262 265 269 278 289 296 299 304 309
288 289 292 297 291 290 293 300 303 304 301 290 253 277 213 231 241 257 256 182 165 172 207 125 139 143 90 91 105 161 227 267 257 243 256 249 247 246 254 266 262 251 237 246 253 260 269 285 298 311 316 315 312 311
283 285 288 292 288 288 292 297 300 304 308 290 261 304 254 232 232 249 187 150 146 137 139 167 178 176 192 176 178 188 201 216 234 233 237 249 249 229 190 194 210 244 242 252 234 271 298 304 314 319 319 315 311 311
286 279 286 288 284 291 293 293 294 300 306 293 195 286 201 206 211 189 157 154 165 179 178 166 181 162 159 162 172 173 190 203 213 231 243 251 271 257 238 252 258 253 243 237 246 293 305 312 313 319 318 313 310 310
285 284 286 288 287 289 284 290 295 301 309 220 305 270 200 221 196 175 170 158 171 183 194 194 198 199 187 164 168 171 152 161 175 212 214 231 110 215 237 249 257 244 230 220 274 299 308 309 315 316 315 311 310 312
284 289 290 289 284 279 284 280 282 301 298 230 217 123 161 166 174 178 156 153 162 188 171 168 159 155 150 151 145 161 160 182 175 171 193 213 343 268 236 207 184 198 258 293 303 306 307 314 316 314 313 312 311 311
286 283 287 286 285 277 285 267 284 291 303 161 205 223 195 118 180 150 156 155 154 163 161 150 150 150 147 145 143 146 158 169 156 187 223 266 52 164 133 123 277 303 309 311 312 314 317 318 317 314 312 311 311 312
270 273 271 269 287 280 288 276 263 222 141 162 146 159 188 176 191 174 190 167 166 155 156 152 150 157 156 145 139 149 155 163 186 215 342 234 281 137 84 312 308 311 316 316 318 319 320 319 316 313 312 313 311 310
273 271 269 268 264 249 278 225 216 197 152 142 140 144 169 116 123 219 190 181 175 157 157 156 151 154 149 144 149 146 164 171 179 83 119 118 140 294 298 309 315 319 320 319 318 317 316 315 314 313 313 311 309 307
273 257 243 217 191 180 143 194 188 179 164 143 161 160 163 171 18 181 199 186 164 164 166 158 158 165 161 145 160 164 168 167 136 117 158 205 257 288 302 308 313 314 313 314 315 316 314 314 314 313 311 309 308 308
193 216 179 174 158 152 341 22 119 156 132 95 341 173 76 118 196 193 174 158 167 176 172 159 159 156 145 168 175 177 190 171 184 228 284 297 299 303 307 312 313 311 312 315 317 317 315 314 313 311 309 309 309 309
196 201 157 151 139 122 85 64 107 91 121 95 112 75 60 56 36 102 156 171 180 183 183 164 152 157 157 163 144 110 130 151 224 275 303 303 300 306 308 314 319 317 317 319 317 315 315 314 312 310 309 310 311 310
125 116 139 140 132 140 125 111 123 104 114 100 106 193 338 104 75 59 104 105 182 182 203 215 208 207 210 188 185 198 183 251 279 293 302 300 308 313 314 314 314 314 316 317 316 316 315 315 313 312 311 311 313 313
127 129 123 121 138 138 108 84 101 94 92 159 181 205 234 249 224 192 153 178 195 190 200 208 204 171 134 128 145 195 275 285 288 291 299 304 313 315 314 313 315 316 318 319 318 314 313 314 312 312 313 312 314 317
89 99 106 101 95 82 106 82 58 83 77 52 159 224 224 220 230 231 236 214 217 227 235 244 245 264 281 285 280 276 284 288 290 293 297 305 313 313 313 317 318 318 320 319 315 316 317 316 316 317 315 312 314 320
123 104 112 98 135 11 289 295 340 330 313 290 272 250 226 209 215 222 229 223 249 267 257 254 268 259 278 282 272 270 276 289 297 300 306 308 308 309 313 317 319 320 321 320 320 321 320 319 321 320 315 313 314 314
109 54 3 344 311 346 355 17 12 20 15 8 326 247 248 247 236 203 209 240 266 274 262 246 237 248 263 274 274 288 301 309 310 305 304 308 312 316 320 322 319 320 323 324 324 322 323 326 323 317 311 309 313 322
66 274 295 340 313 310 344 351 7 26 72 47 28 128 147 152 162 146 94 131 167 172 187 191 207 230 249 270 305 313 308 299 300 308 315 317 321 321 320 320 322 323 322 327 327 326 328 330 332 337 346 348 352 354
353 335 326 342 323 338 340 18 34 201 195 134 89 93 108 123 107 99 123 149 105 108 119 130 142 158 275 286 297 304 309 317 318 321 321 320 319 322 323 324 327 323 330 330 331 334 334 335 338 348 355 358 0 22
331 59 23 21 6 341 335 344 357 22 192 179 126 111 112 99 89 82 118 127 124 100 83 61 23 9 360 354 343 335 334 332 329 326 323 322 324 326 329 333 333 333 336 336 343 345 346 358 3 10 20 39 62 84
302 321 34 344 338 341 348 15 52 79 95 133 127 107 84 97 99 130 115 107 93 69 44 27 17 22 20 7 353 343 336 332 329 328 328 331 335 334 336 339 341 344 351 351 360 12 26 38 41 47 57 70 84 94
355 6 355 325 321 333 16 69 73 107 107 103 102 99 64 91 155 155 148 137 20 7 5 4 4 10 5 357 351 347 343 341 339 337 341 334 333 335 339 337 340 350 3 19 31 45 50 52 54 55 58 66 77 86
330 284 246 268 324 327 134 114 100 106 119 131 119 118 106 95 140 177 193 241 305 329 336 342 349 356 351 349 348 348 347 346 342 337 336 338 339 339 338 344 345 350 360 7 16 26 31 35 38 44 54 66 75 82
23 21 355 219 201 181 155 150 144 113 102 119 138 137 126 122 130 156 233 292 311 315 320 326 331 340 339 337 341 346 345 348 352 352 351 351 353 353 354 354 353 354 353 350 357 9 24 32 27 29 41 73 78 77
31 27 34 38 232 217 204 194 193 200 204 195 187 197 215 256 269 276 289 303 306 305 309 318 322 332 338 339 342 346 346 344 348 352 356 358 359 358 356 1 7 7 359 353 358 3 4 19 23 21 34 104 128 115
331 30 36 37 29 9 289 231 228 229 230 234 241 248 253 260 266 279 281 279 257 187 306 336 337 336 338 340 342 347 350 355 356 357 359 2 3 3 0 1 6 5 3 1 12 24 50 55 39 39 59 90 116 127
245 271 336 12 16 19 36 89 129 174 221 240 246 239 232 223 207 172 138 135 103 5 348 337 334 339 341 342 348 352 352 354 357 358 360 359 360 2 3 0 4 7 9 14 35 42 46 59 52 52 72 90 103 113
Height
2986 2983 2979 2975 2973 2971 2968 2970 2969 2967 2966 2968 2968 2969 2970 2973 2976 2980 2985 2987 2990 2992 2994 3000 3003 3008 3011 3014 3015 3019 3024 3025 3027 3030 3030 3031 3031 3032 3034 3035 3037 3040 3042 3045 3048 3050 3045 3040 3042 3046 3044 3042 3044 3043
2982 2979 2976 2972 2968 2966 2964 2961 2963 2963 2962 2961 2962 2963 2962 2964 2967 2971 2974 2978 2981 2984 2987 2990 2992 2996 2999 3001 3005 3008 3011 3014 3018 3018 3019 3021 3022 3023 3025 3028 3030 3034 3034 3037 3041 3038 3036 3036 3036 3037 3039 3038 3038 3038
2977 2974 2972 2969 2966 2963 2958 2958 2957 2957 2957 2957 2956 2958 2958 2960 2962 2963 2965 2970 2972 2975 2978 2981 2984 2987 2990 2992 2994 2998 2999 3002 3004 3006 3009 3011 3015 3016 3018 3021 3024 3025 3028 3031 3033 3030 3031 3032 3032 3033 3033 3032 3031 3029
2971 2968 2966 2964 2962 2959 2957 2954 2951 2951 2953 2951 2950 2952 2953 2955 2958 2961 2961 2965 2967 2970 2970 2972 2974 2978 2981 2983 2986 2990 2992 2996 3000 3002 3003 3005 3009 3011 3014 3016 3019 3022 3025 3026 3028 3027 3027 3026 3027 3028 3028 3025 3023 3021
2966 2963 2961 2959 2957 2955 2952 2949 2947 2946 2946 2947 2945 2947 2948 2951 2953 2955 2956 2959 2963 2967 2966 2967 2970 2972 2974 2977 2980 2983 2986 2989 2993 2996 2998 3001 3003 3007 3009 3012 3013 3017 3019 3020 3020 3023 3024 3023 3023 3023 3021 3019 3017 3013
2959 2958 2956 2954 2952 2950 2948 2946 2944 2942 2941 2942 2941 2941 2943 2946 2949 2951 2954 2956 2958 2959 2963 2965 2967 2968 2970 2972 2976 2979 2982 2984 2987 2990 2994 2996 3000 3005 3004 3004 3009 3010 3011 3013 3014 3015 3016 3018 3018 3016 3015 3013 3010 3007
2953 2952 2950 2949 2948 2946 2945 2943 2940 2939 2937 2937 2938 2938 2940 2942 2945 2948 2951 2952 2954 2957 2960 2962 2964 2967 2969 2972 2975 2977 2980 2983 2986 2988 2990 2994 2998 2999 2998 2999 3004 3005 3006 3008 3009 3011 3011 3010 3011 3010 3009 3006 3002 2998
2947 2946 2945 2944 2943 2942 2941 2939 2938 2936 2935 2934 2935 2934 2935 2938 2940 2944 2947 2949 2950 2953 2957 2960 2962 2967 2968 2971 2973 2976 2978 2980 2983 2986 2989 2991 2993 2994 2993 2996 2997 2998 3001 3003 3004 3004 3005 3006 3006 3004 3001 2996 2992 2988
2942 2941 2940 2939 2939 2938 2938 2936 2935 2933 2932 2932 2933 2933 2934 2937 2938 2940 2943 2946 2949 2954 2956 2959 2962 2965 2966 2969 2972 2975 2978 2979 2983 2983 2986 2988 2987 2989 2991 2992 2994 2995 2997 2998 2999 3000 3000 3000 2998 2996 2992 2988 2983 2979
2937 2937 2936 2935 2935 2935 2935 2933 2932 2931 2930 2930 2932 2934 2933 2934 2936 2940 2943 2947 2950 2953 2955 2958 2961 2964 2967 2968 2971 2976 2977 2979 2979 2981 2982 2983 2984 2988 2988 2989 2990 2991 2993 2995 2996 2996 2994 2993 2991 2989 2985 2980 2975 2971
2933 2933 2932 2932 2932 2932 2932 2931 2930 2930 2930 2930 2931 2931 2933 2935 2937 2939 2943 2946 2950 2952 2954 2956 2960 2963 2965 2967 2970 2973 2976 2978 2978 2980 2981 2981 2983 2984 2984 2985 2986 2988 2989 2991 2992 2990 2988 2986 2983 2980 2976 2971 2966 2962
2930 2930 2930 2930 2930 2929 2929 2929 2929 2929 2930 2931 2931 2932 2934 2936 2938 2940 2941 2944 2946 2950 2951 2954 2957 2959 2962 2966 2970 2973 2975 2977 2977 2978 2979 2980 2982 2982 2982 2983 2985 2986 2988 2988 2987 2985 2982 2979 2975 2970 2966 2961 2957 2952
2927 2927 2927 2927 2928 2928 2927 2928 2929 2929 2930 2931 2933 2935 2935 2937 2938 2940 2941 2943 2945 2948 2950 2952 2955 2959 2963 2967 2969 2972 2973 2975 2977 2978 2979 2979 2980 2980 2981 2982 2984 2984 2984 2982 2980 2978 2974 2970 2966 2962 2957 2953 2948 2942
2924 2924 2925 2925 2927 2927 2927 2928 2929 2929 2931 2932 2933 2935 2936 2937 2938 2939 2941 2944 2946 2948 2950 2953 2955 2959 2962 2966 2968 2971 2973 2975 2975 2976 2976 2977 2977 2979 2980 2981 2981 2980 2978 2976 2973 2969 2965 2961 2957 2953 2949 2944 2937 2931
2922 2923 2924 2925 2926 2926 2926 2927 2928 2930 2931 2933 2934 2935 2936 2937 2938 2939 2940 2943 2946 2948 2951 2953 2955 2959 2961 2964 2966 2969 2971 2972 2973 2974 2975 2976 2977 2977 2977 2977 2976 2973 2971 2968 2965 2961 2957 2952 2947 2942 2938 2933 2927 2921
2922 2922 2923 2924 2925 2926 2927 2927 2928 2930 2932 2933 2934 2936 2937 2939 2940 2941 2941 2944 2946 2949 2951 2953 2955 2959 2960 2962 2964 2966 2968 2969 2971 2972 2973 2974 2975 2975 2974 2973 2970 2967 2964 2961 2957 2952 2947 2942 2937 2932 2927 2922 2916 2911
2921 2922 2923 2924 2926 2927 2928 2929 2929 2931 2933 2935 2935 2936 2937 2937 2938 2939 2941 2943 2945 2948 2950 2953 2955 2957 2959 2961 2963 2964 2966 2968 2969 2970 2972 2972 2972 2971 2969 2967 2964 2961 2957 2953 2948 2943 2937 2932 2927 2921 2916 2912 2908 2903
2920 2922 2925 2926 2927 2929 2930 2931 2932 2933 2934 2936 2937 2937 2938 2938 2938 2939 2940 2943 2945 2948 2952 2954 2955 2956 2958 2960 2962 2964 2965 2966 2968 2969 2969 2968 2967 2966 2963 2960 2957 2952 2948 2943 2938 2933 2927 2922 2916 2912 2907 2902 2899 2894
2923 2924 2926 2927 2929 2930 2931 2933 2934 2934 2935 2936 2937 2938 2938 2939 2940 2941 2942 2944 2946 2949 2952 2954 2956 2957 2958 2960 2961 2962 2964 2965 2966 2966 2965 2964 2962 2960 2956 2952 2948 2944 2939 2934 2928 2923 2917 2912 2907 2902 2898 2893 2889 2886
2925 2926 2927 2929 2931 2932 2933 2934 2935 2935 2936 2937 2937 2938 2938 2939 2940 2942 2943 2945 2946 2949 2951 2952 2955 2956 2958 2959 2960 2961 2961 2961 2961 2960 2960 2958 2956 2953 2949 2944 2940 2935 2930 2925 2919 2913 2909 2904 2899 2894 2890 2885 2882 2881
2928 2929 2930 2931 2932 2933 2934 2935 2935 2936 2936 2936 2936 2936 2937 2938 2939 2940 2942 2943 2945 2947 2949 2952 2954 2955 2956 2956 2957 2957 2956 2956 2955 2955 2953 2951 2949 2945 2941 2936 2931 2926 2921 2915 2910 2906 2900 2894 2890 2886 2883 2880 2878 2876
2930 2931 2932 2932 2933 2934 2935 2935 2935 2935 2935 2934 2935 2935 2936 2937 2938 2939 2941 2943 2944 2945 2947 2949 2950 2951 2952 2952 2952 2952 2952 2952 2951 2950 2947 2945 2941 2938 2934 2927 2922 2918 2913 2907 2902 2896 2891 2886 2883 2880 2878 2876 2874 2872
2933 2933 2933 2934 2935 2935 2937 2935 2935 2934 2933 2933 2933 2933 2934 2935 2937 2938 2940 2941 2942 2942 2944 2946 2946 2947 2948 2948 2948 2948 2948 2947 2945 2944 2941 2938 2934 2930 2924 2919 2914 2909 2905 2901 2894 2889 2884 2881 2879 2876 2874 2872 2871 2869
2934 2935 2934 2934 2935 2935 2935 2934 2934 2934 2934 2933 2932 2932 2933 2934 2936 2937 2938 2939 2940 2940 2941 2942 2943 2944 2945 2945 2946 2945 2944 2943 2941 2938 2935 2931 2928 2923 2918 2913 2908 2903 2898 2893 2888 2883 2880 2878 2875 2872 2870 2869 2868 2868
2937 2937 2937 2935 2935 2935 2934 2934 2934 2934 2933 2933 2933 2933 2934 2935 2936 2937 2938 2939 2939 2940 2941 2942 2943 2944 2944 2944 2944 2943 2941 2938 2936 2933 2929 2926 2922 2918 2914 2909 2904 2898 2893 2888 2884 2881 2878 2875 2872 2871 2870 2869 2868 2867
2936 2936 2937 2936 2935 2935 2934 2934 2934 2933 2933 2934 2934 2935 2935 2936 2937 2938 2938 2939 2940 2942 2943 2944 2944 2943 2942 2941 2939 2938 2937 2934 2931 2928 2924 2920 2916 2912 2908 2904 2900 2894 2889 2884 2882 2879 2876 2873 2872 2870 2869 2869 2868 2868
2935 2935 2935 2936 2935 2934 2934 2933 2933 2934 2934 2935 2935 2936 2937 2938 2939 2941 2941 2942 2944 2945 2945 2944 2943 2941 2940 2939 2938 2936 2934 2931 2928 2924 2920 2914 2910 2907 2903 2898 2894 2890 2886 2884 2881 2879 2876 2874 2873 2872 2871 2870 2870 2870
2936 2935 2936 2936 2935 2934 2934 2934 2934 2934 2935 2936 2937 2937 2938 2939 2940 2942 2943 2944 2944 2944 2943 2942 2941 2940 2939 2938 2937 2934 2932 2928 2924 2920 2915 2911 2908 2904 2900 2896 2891 2887 2885 2883 2882 2880 2878 2877 2875 2874 2873 2873 2872 2872
2935 2935 2935 2935 2935 2934 2934 2935 2935 2935 2936 2937 2938 2939 2940 2940 2941 2942 2944 2944 2944 2944 2943 2941 2940 2940 2939 2938 2935 2932 2929 2926 2923 2920 2916 2912 2908 2904 2899 2894 2889 2886 2885 2883 2882 2881 2880 2879 2877 2876 2875 2875 2875 2874
2936 2934 2934 2934 2934 2935 2935 2935 2936 2937 2937 2938 2939 2940 2940 2941 2942 2943 2943 2944 2943 2942 2941 2940 2939 2939 2938 2936 2933 2930 2927 2923 2919 2916 2912 2909 2905 2900 2896 2892 2888 2885 2884 2883 2882 2881 2880 2880 2879 2878 2877 2876 2876 2876
2938 2936 2935 2934 2934 2934 2935 2935 2936 2937 2938 2938 2939 2940 2941 2942 2942 2942 2942 2941 2940 2940 2939 2939 2939 2938 2937 2934 2932 2930 2927 2923 2919 2915 2910 2906 2902 2898 2894 2890 2887 2885 2884 2883 2882 2881 2880 2880 2879 2878 2877 2877 2877 2877
2938 2938 2937 2935 2934 2934 2933 2933 2934 2935 2936 2937 2938 2939 2939 2940 2940 2940 2939 2939 2939 2939 2940 2939 2938 2936 2935 2933 2931 2928 2925 2921 2917 2914 2910 2905 2901 2898 2894 2890 2887 2885 2884 2883 2882 2881 2881 2880 2880 2879 2878 2878 2878 2878
2936 2936 2936 2936 2934 2933 2933 2933 2933 2934 2934 2934 2935 2935 2936 2937 2938 2939 2939 2939 2940 2939 2939 2938 2937 2935 2934 2932 2930 2927 2923 2920 2916 2912 2908 2904 2901 2898 2894 2891 2888 2885 2884 2883 2882 2882 2881 2881 2881 2880 2880 2880 2880 2880